カーディナル彗星

C/2010 B1 ( Cardinal )

English version
Home page
Updated on December 15, 2011

---------------------------------------------------------------------

・ プロフィール

発見日 2010年1月19日
発見光度 17.7等
発見者 R. D. Cardinal (Rothney Astrophysical Observatory, University of Calgary)

・ 写真集

・ 軌道要素

Epoch 2011 Feb. 8.0 TT = JDT 2455600.5
T 2011 Feb. 7.07995 TT                                  MPC
q   2.9414501            (2000.0)            P               Q
z  +0.0003349      Peri.  211.52560     +0.00060659     +0.24113705
 +/-0.0000004      Node   277.21359     +0.99184007     -0.12386998
e   0.9990148      Incl.  101.97626     -0.12748689     -0.96255345
From 1951 observations 2010 Jan. 19-2011 Nov. 20, mean residual 0".5.

・ 星図

・ 光度変化

        m1 = 9.2 + 5 logΔ + 7.5 log r

---------------------------------------------------------------------

軌道要素はM.P.E.C. 2011-W48に掲載されたものです。
星図はステラナビゲータ Ver.8 (アストロアーツ) で作成したものです。
光度グラフはComet for Windowsで作成したものです。

---------------------------------------------------------------------

Copyright(C) Seiichi Yoshida (comet@aerith.net). All rights reserved.